Location: C�an Torras
(41.5052°N, 1.9280°E)
Time: 21:18:52
(UTC+00:00)

CZ-2C R/B - Pass Details

Date: 20 January 2021
Orbit: 704 x 908 km, 98.1° (Epoch: 02 March)

Event Time Altitude Azimuth Distance (km) Brightness Sun altitude
Rises 18:05:57 0° 161° (SSE) 3,245 6.2 -13.5°
Reaches altitude 10° 18:08:11 10° 160° (SSE) 2,350 5.5 -13.9°
Maximum altitude 18:13:24 78° 75° (ENE) 846 3.1 -14.9°
Drops below altitude 10° 18:18:57 10° 350° (N) 2,500 5.6 -15.9°
Sets 18:21:24 0° 349° (N) 3,467 6.4 -16.3°
